Time,TemperatureF,DewpointF,PressureIn,WindDirection,WindDirectionDegrees,WindSpeedMPH,WindSpeedGustMPH,Humidity,HourlyPrecipIn,Conditions,Clouds,dailyrainin,SolarRadiationWatts/m^2,SoftwareType,DateUTC
2013-02-15 00:21:00,38.0,0.0,-100.00,ENE,70,8.0,17.0,20,-99.99,,,-99.99,0.000000,,2013-02-15 08:21:00,
2013-02-15 01:21:00,39.0,-1.0,-100.00,ENE,74,10.0,19.0,18,-99.99,,,-99.99,0.000000,,2013-02-15 09:21:00,
2013-02-15 02:21:00,39.0,-1.0,-100.00,ENE,75,8.0,14.0,18,-99.99,,,-99.99,0.000000,,2013-02-15 10:21:00,
2013-02-15 03:22:00,40.0,0.0,-100.00,East,84,8.0,15.0,18,-99.99,,,-99.99,0.000000,,2013-02-15 11:22:00,
2013-02-15 04:21:00,40.0,0.0,-100.00,ENE,75,7.0,16.0,18,-99.99,,,-99.99,0.000000,,2013-02-15 12:21:00,
2013-02-15 05:21:00,39.0,0.0,-100.00,ENE,72,9.0,17.0,19,-99.99,,,-99.99,0.000000,,2013-02-15 13:21:00,
2013-02-15 06:21:00,38.0,1.0,-100.00,ENE,75,9.0,15.0,20,-99.99,,,-99.99,0.000000,,2013-02-15 14:21:00,
2013-02-15 07:21:00,39.0,1.0,-100.00,East,85,8.0,13.0,20,-99.99,,,-99.99,0.000000,,2013-02-15 15:21:00,
2013-02-15 08:22:00,41.0,2.0,-100.00,East,89,9.0,16.0,19,-99.99,,,-99.99,36.000000,,2013-02-15 16:22:00,
2013-02-15 09:21:00,42.0,3.0,-100.00,East,85,8.0,15.0,19,-99.99,,,-99.99,30.000000,,2013-02-15 17:21:00,
2013-02-15 10:21:00,45.0,4.0,-100.00,East,88,7.0,11.0,18,-99.99,,,-99.99,301.000000,,2013-02-15 18:21:00,
2013-02-15 11:21:00,48.0,8.0,-100.00,ESE,120,5.0,8.0,19,-99.99,,,-99.99,455.000000,,2013-02-15 19:21:00,
2013-02-15 12:21:00,50.0,6.0,-100.00,SE,145,3.0,7.0,16,-99.99,,,-99.99,522.000000,,2013-02-15 20:21:00,
2013-02-15 12:30:00,52.0,14.0,-100.00,WSW,240,3.0,7.0,22,-99.99,,,-99.99,534.000000,,2013-02-15 20:30:00,
2013-02-15 13:21:00,52.0,14.0,-100.00,WSW,240,3.0,7.0,22,-99.99,,,-99.99,534.000000,,2013-02-15 21:21:00,
2013-02-15 13:30:00,50.0,16.0,-100.00,WSW,255,3.0,7.0,25,-99.99,,,-99.99,491.000000,,2013-02-15 21:30:00,
2013-02-15 14:21:00,50.0,16.0,-100.00,WSW,255,3.0,7.0,25,-99.99,,,-99.99,491.000000,,2013-02-15 22:21:00,
2013-02-15 14:30:00,50.0,19.0,-100.00,West,278,2.0,6.0,29,-99.99,,,-99.99,367.000000,,2013-02-15 22:30:00,
2013-02-15 15:21:00,50.0,19.0,-100.00,West,278,2.0,6.0,29,-99.99,,,-99.99,367.000000,,2013-02-15 23:21:00,
2013-02-15 15:30:00,51.0,20.0,-100.00,WNW,295,1.0,5.0,29,-99.99,,,-99.99,270.000000,,2013-02-15 23:30:00,
2013-02-15 16:21:00,51.0,20.0,-100.00,WNW,295,1.0,5.0,29,-99.99,,,-99.99,270.000000,,2013-02-16 00:21:00,
2013-02-15 16:30:00,47.0,20.0,-100.00,West,279,2.0,5.0,34,-99.99,,,-99.99,70.000000,,2013-02-16 00:30:00,
2013-02-15 17:21:00,47.0,20.0,-100.00,West,279,2.0,5.0,34,-99.99,,,-99.99,70.000000,,2013-02-16 01:21:00,
2013-02-15 17:30:00,44.0,21.0,-100.00,NW,322,1.0,2.0,40,-99.99,,,-99.99,8.000000,,2013-02-16 01:30:00,
2013-02-15 18:21:00,44.0,21.0,-100.00,NW,322,1.0,2.0,40,-99.99,,,-99.99,8.000000,,2013-02-16 02:21:00,
2013-02-15 18:30:00,43.0,21.0,-100.00,SE,137,2.0,4.0,41,-99.99,,,-99.99,0.000000,,2013-02-16 02:30:00,
2013-02-15 19:21:00,43.0,21.0,-100.00,SE,137,2.0,4.0,41,-99.99,,,-99.99,0.000000,,2013-02-16 03:21:00,
2013-02-15 19:30:00,42.0,22.0,-100.00,SE,131,2.0,4.0,43,-99.99,,,-99.99,0.000000,,2013-02-16 03:30:00,
2013-02-15 20:21:00,42.0,22.0,-100.00,SE,131,2.0,4.0,43,-99.99,,,-99.99,0.000000,,2013-02-16 04:21:00,
2013-02-15 21:21:00,42.0,17.0,-100.00,SSE,161,1.0,2.0,36,-99.99,,,-99.99,0.000000,,2013-02-16 05:21:00,
2013-02-15 22:21:00,42.0,15.0,-100.00,East,80,2.0,2.0,34,-99.99,,,-99.99,0.000000,,2013-02-16 06:21:00,
2013-02-15 23:21:00,42.0,-3.0,-100.00,ENE,71,0.0,1.0,14,-99.99,,,-99.99,0.000000,,2013-02-16 07:21:00,